UAE5CL NZCH-YSSY

Flight info

Callsign UAE5CL
Flight time 2h 30m
Altitude 38000
Route VANDA N750 PLUGA DCT RIKNI N774 MARLN
Aircraft A388/J-SADE2E3FGHIJ3J4J5M1RWXY/LB1D1

Departure

Time 2026-04-22 17:40
Airport Christchurch International Airport (NZCH)

Arrival

Time 2026-04-22 20:10
Airport Sydney Kingsford Smith International Airport (YSSY)
Time Latitude Longitude Altitude Speed Heading
2026-04-22 17:23 -43.48661 172.54153 111 ft 0 kts 226°
2026-04-22 17:32 -43.48654 172.54163 110 ft 2 kts 226°
2026-04-22 17:32 -43.48645 172.54175 109 ft 2 kts 226°
2026-04-22 17:32 -43.48636 172.54187 109 ft 2 kts 226°
2026-04-22 17:33 -43.48631 172.54196 111 ft 2 kts 229°
2026-04-22 17:33 -43.48622 172.54215 109 ft 2 kts 243°
2026-04-22 17:33 -43.48619 172.54232 110 ft 2 kts 258°
2026-04-22 17:33 -43.48619 172.54249 110 ft 2 kts 274°
2026-04-22 17:34 -43.48623 172.54265 109 ft 2 kts 297°
2026-04-22 17:34 -43.48626 172.54270 109 ft 1 kts 302°
2026-04-22 17:34 -43.48630 172.54277 109 ft 0 kts 308°
2026-04-22 17:36 -43.48625 172.54269 109 ft 4 kts 308°
2026-04-22 17:36 -43.48596 172.54219 109 ft 9 kts 308°
2026-04-22 17:36 -43.48548 172.54137 109 ft 13 kts 310°
2026-04-22 17:37 -43.48494 172.54076 111 ft 9 kts 355°
2026-04-22 17:37 -43.48425 172.54114 111 ft 13 kts 33°
2026-04-22 17:37 -43.48343 172.54198 110 ft 16 kts 38°
2026-04-22 17:37 -43.48249 172.54304 113 ft 18 kts 40°
2026-04-22 17:38 -43.48152 172.54417 114 ft 19 kts 40°
2026-04-22 17:38 -43.48043 172.54542 111 ft 22 kts 39°
2026-04-22 17:38 -43.47922 172.54681 107 ft 24 kts 40°
2026-04-22 17:38 -43.47795 172.54829 108 ft 20 kts 40°
2026-04-22 17:39 -43.47675 172.54919 104 ft 20 kts 352°
2026-04-22 17:39 -43.47546 172.54862 103 ft 16 kts 320°
2026-04-22 17:39 -43.47753 172.54531 108 ft 79 kts 219°
2026-04-22 17:40 -43.48362 172.53830 109 ft 144 kts 220°
2026-04-22 17:40 -43.49195 172.52882 464 ft 156 kts 220°
2026-04-22 17:40 -43.50015 172.51952 1196 ft 149 kts 221°
2026-04-22 17:40 -43.50792 172.51046 1846 ft 151 kts 219°
2026-04-22 17:41 -43.51548 172.49967 2265 ft 164 kts 234°
2026-04-22 17:41 -43.52101 172.48557 2867 ft 171 kts 242°
2026-04-22 17:41 -43.52649 172.47043 3321 ft 180 kts 240°
2026-04-22 17:41 -43.53281 172.45490 3728 ft 196 kts 237°
2026-04-22 17:42 -43.54049 172.43829 4213 ft 216 kts 234°
2026-04-22 17:42 -43.54934 172.42030 4782 ft 235 kts 234°
2026-04-22 17:42 -43.55565 172.40776 5236 ft 245 kts 234°
2026-04-22 17:42 -43.56483 172.37788 6118 ft 267 kts 263°
2026-04-22 17:43 -43.56202 172.35252 6905 ft 281 kts 290°
2026-04-22 17:43 -43.55066 172.33031 7713 ft 290 kts 317°
2026-04-22 17:43 -43.53371 172.31484 8548 ft 296 kts 331°
2026-04-22 17:43 -43.51519 172.30190 9373 ft 301 kts 333°
2026-04-22 17:44 -43.49630 172.28888 10220 ft 306 kts 332°
2026-04-22 17:44 -43.47689 172.27478 10592 ft 327 kts 331°
2026-04-22 17:44 -43.45633 172.25911 10809 ft 349 kts 330°
2026-04-22 17:44 -43.44214 172.24804 11092 ft 357 kts 330°
2026-04-22 17:45 -43.41333 172.22525 11962 ft 364 kts 328°
2026-04-22 17:45 -43.39381 172.20281 12617 ft 368 kts 309°
2026-04-22 17:45 -43.37987 172.17337 13291 ft 370 kts 292°
2026-04-22 17:45 -43.36969 172.14070 13945 ft 375 kts 290°
2026-04-22 17:46 -43.35919 172.10760 14549 ft 380 kts 291°
2026-04-22 17:46 -43.35209 172.08549 14956 ft 384 kts 291°
2026-04-22 17:46 -43.34121 172.05180 15565 ft 388 kts 291°
2026-04-22 17:46 -43.33018 172.01771 16153 ft 393 kts 291°
2026-04-22 17:47 -43.31536 171.97192 16940 ft 399 kts 291°
2026-04-22 17:47 -43.30401 171.93688 17541 ft 404 kts 291°
2026-04-22 17:47 -43.29253 171.90147 18126 ft 408 kts 291°
2026-04-22 17:47 -43.28090 171.86565 18715 ft 413 kts 291°
2026-04-22 17:48 -43.27312 171.84178 19038 ft 416 kts 291°
2026-04-22 17:48 -43.26128 171.80545 19573 ft 419 kts 291°
2026-04-22 17:48 -43.24934 171.76882 20118 ft 423 kts 291°
2026-04-22 17:48 -43.23730 171.73198 20572 ft 426 kts 291°
2026-04-22 17:49 -43.22508 171.69462 21029 ft 430 kts 291°
2026-04-22 17:49 -43.20879 171.64483 21697 ft 435 kts 291°
2026-04-22 17:49 -43.19635 171.60695 22233 ft 437 kts 291°
2026-04-22 17:49 -43.18385 171.56883 22646 ft 440 kts 291°
2026-04-22 17:50 -43.17550 171.54339 22903 ft 444 kts 291°
2026-04-22 17:50 -43.16275 171.50469 23391 ft 447 kts 291°
2026-04-22 17:50 -43.14989 171.46574 23887 ft 451 kts 291°
2026-04-22 17:50 -43.13690 171.42647 24242 ft 454 kts 292°
2026-04-22 17:51 -43.12380 171.38691 24627 ft 457 kts 292°
2026-04-22 17:51 -43.10636 171.33428 25097 ft 462 kts 292°
2026-04-22 17:51 -43.09737 171.30719 25362 ft 465 kts 292°
2026-04-22 17:51 -43.08410 171.26728 25735 ft 468 kts 292°
2026-04-22 17:52 -43.07063 171.22683 26220 ft 470 kts 292°
2026-04-22 17:52 -43.05700 171.18598 26656 ft 472 kts 292°
2026-04-22 17:52 -43.04330 171.14496 27037 ft 478 kts 292°
2026-04-22 17:52 -43.02946 171.10347 27458 ft 482 kts 292°
2026-04-22 17:53 -43.01549 171.06176 27911 ft 485 kts 292°
2026-04-22 17:53 -43.00139 171.01962 28304 ft 490 kts 292°
2026-04-22 17:53 -42.98713 170.97725 28729 ft 493 kts 293°
2026-04-22 17:53 -42.97286 170.93501 29155 ft 497 kts 293°
2026-04-22 17:54 -42.95840 170.89199 29601 ft 501 kts 293°
2026-04-22 17:54 -42.94383 170.84871 30089 ft 504 kts 293°
2026-04-22 17:54 -42.92909 170.80501 30523 ft 509 kts 293°
2026-04-22 17:54 -42.91422 170.76105 30894 ft 513 kts 293°
2026-04-22 17:55 -42.89917 170.71668 31290 ft 517 kts 293°
2026-04-22 17:55 -42.88406 170.67215 31685 ft 521 kts 294°
2026-04-22 17:55 -42.86876 170.62716 32076 ft 525 kts 294°
2026-04-22 17:55 -42.85333 170.58187 32470 ft 529 kts 294°
2026-04-22 17:56 -42.83776 170.53624 32842 ft 533 kts 294°
2026-04-22 17:56 -42.82227 170.49090 33218 ft 538 kts 294°
2026-04-22 17:56 -42.80642 170.44460 33614 ft 541 kts 294°
2026-04-22 17:56 -42.79042 170.39796 33994 ft 545 kts 294°
2026-04-22 17:57 -42.77430 170.35106 34366 ft 549 kts 294°
2026-04-22 17:57 -42.75806 170.30386 34772 ft 551 kts 294°
2026-04-22 17:57 -42.74180 170.25672 35232 ft 551 kts 294°
2026-04-22 17:57 -42.72551 170.20957 35825 ft 549 kts 294°
2026-04-22 17:58 -42.70930 170.16271 36448 ft 545 kts 294°
2026-04-22 17:58 -42.69324 170.11637 37177 ft 539 kts 294°
2026-04-22 17:58 -42.67750 170.07103 37787 ft 536 kts 294°
2026-04-22 17:58 -42.66165 170.02543 38429 ft 533 kts 294°
2026-04-22 17:59 -42.64586 169.98008 39030 ft 529 kts 294°
2026-04-22 17:59 -42.63017 169.93508 39534 ft 525 kts 294°
2026-04-22 17:59 -42.61457 169.89043 40060 ft 521 kts 294°
2026-04-22 17:59 -42.59899 169.84594 40285 ft 524 kts 295°
2026-04-22 18:00 -42.58861 169.81645 40306 ft 522 kts 294°
2026-04-22 18:00 -42.55244 169.71338 40310 ft 520 kts 294°
2026-04-22 18:01 -42.52131 169.62499 40309 ft 520 kts 294°
2026-04-22 18:01 -42.49005 169.53656 40306 ft 520 kts 294°
2026-04-22 18:02 -42.45870 169.44819 40306 ft 520 kts 294°
2026-04-22 18:02 -42.42757 169.36059 40307 ft 520 kts 295°
2026-04-22 18:03 -42.39586 169.27269 40307 ft 520 kts 295°
2026-04-22 18:03 -42.36381 169.18504 40308 ft 520 kts 295°
2026-04-22 18:04 -42.33188 169.09735 40309 ft 520 kts 295°
2026-04-22 18:04 -42.30016 169.01032 40308 ft 520 kts 295°
2026-04-22 18:05 -42.26813 168.92273 40312 ft 520 kts 295°
2026-04-22 18:05 -42.23602 168.83534 40312 ft 520 kts 295°
2026-04-22 18:06 -42.20382 168.74800 40310 ft 520 kts 295°
2026-04-22 18:06 -42.17178 168.66137 40319 ft 519 kts 296°
2026-04-22 18:07 -42.13946 168.57427 40317 ft 519 kts 296°
2026-04-22 18:07 -42.10710 168.48732 40316 ft 519 kts 296°
2026-04-22 18:08 -42.07471 168.40053 40315 ft 519 kts 296°
2026-04-22 18:08 -42.04243 168.31431 40299 ft 519 kts 296°
2026-04-22 18:09 -42.00991 168.22770 40320 ft 519 kts 296°
2026-04-22 18:09 -41.97735 168.14127 40323 ft 518 kts 296°
2026-04-22 18:10 -41.94475 168.05495 40318 ft 518 kts 296°
2026-04-22 18:10 -41.91233 167.96941 40315 ft 517 kts 296°
2026-04-22 18:11 -41.87966 167.88344 40315 ft 516 kts 296°
2026-04-22 18:11 -41.84696 167.79766 40316 ft 516 kts 296°
2026-04-22 18:12 -41.81422 167.71204 40317 ft 516 kts 296°
2026-04-22 18:12 -41.78161 167.62699 40316 ft 516 kts 296°
2026-04-22 18:13 -41.74875 167.54155 40309 ft 516 kts 297°
2026-04-22 18:13 -41.71581 167.45616 40323 ft 516 kts 297°
2026-04-22 18:14 -41.68281 167.37085 40331 ft 516 kts 297°
2026-04-22 18:14 -41.64998 167.28623 40323 ft 515 kts 297°
2026-04-22 18:15 -41.61691 167.20125 40331 ft 515 kts 297°
2026-04-22 18:15 -41.58381 167.11643 40328 ft 515 kts 297°
2026-04-22 18:16 -41.55064 167.03170 40326 ft 515 kts 297°
2026-04-22 18:16 -41.51763 166.94760 40325 ft 515 kts 297°
2026-04-22 18:17 -41.48437 166.86310 40309 ft 515 kts 297°
2026-04-22 18:17 -41.45102 166.77864 40325 ft 515 kts 297°
2026-04-22 18:18 -41.41759 166.69419 40351 ft 515 kts 297°
2026-04-22 18:18 -41.38413 166.60992 40340 ft 514 kts 297°
2026-04-22 18:19 -41.35085 166.52636 40338 ft 514 kts 297°
2026-04-22 18:19 -41.31735 166.44246 40335 ft 513 kts 298°
2026-04-22 18:20 -41.28380 166.35869 40333 ft 513 kts 298°
2026-04-22 18:20 -41.25021 166.27505 40337 ft 513 kts 298°
2026-04-22 18:21 -41.21677 166.19202 40334 ft 513 kts 298°
2026-04-22 18:21 -41.18307 166.10858 40334 ft 513 kts 298°
2026-04-22 18:22 -41.14934 166.02529 40342 ft 512 kts 298°
2026-04-22 18:22 -41.11557 165.94216 40353 ft 512 kts 298°
2026-04-22 18:23 -41.08197 165.85966 40351 ft 511 kts 298°
2026-04-22 18:23 -41.04815 165.77685 40342 ft 511 kts 298°
2026-04-22 18:24 -40.99737 165.65296 40344 ft 510 kts 298°
2026-04-22 18:25 -40.94670 165.52984 40344 ft 510 kts 298°
2026-04-22 18:25 -40.91271 165.44753 40347 ft 510 kts 298°
2026-04-22 18:26 -40.86159 165.32417 40351 ft 510 kts 298°
2026-04-22 18:26 -40.82743 165.24201 40354 ft 510 kts 298°
2026-04-22 18:27 -40.79345 165.16052 40362 ft 510 kts 298°
2026-04-22 18:27 -40.75922 165.07863 40366 ft 509 kts 298°
2026-04-22 18:28 -40.72497 164.99693 40353 ft 509 kts 299°
2026-04-22 18:28 -40.69067 164.91532 40362 ft 509 kts 299°
2026-04-22 18:29 -40.65657 164.83441 40356 ft 509 kts 299°
2026-04-22 18:29 -40.62219 164.75307 40354 ft 509 kts 299°
2026-04-22 18:30 -40.57050 164.63117 40366 ft 509 kts 299°
2026-04-22 18:31 -40.53593 164.54991 40372 ft 509 kts 299°
2026-04-22 18:31 -40.50151 164.46924 40374 ft 510 kts 299°
2026-04-22 18:32 -40.46678 164.38805 40369 ft 510 kts 299°
2026-04-22 18:32 -40.43202 164.30698 40368 ft 509 kts 299°
2026-04-22 18:33 -40.39722 164.22606 40365 ft 510 kts 299°
2026-04-22 18:33 -40.36257 164.14570 40370 ft 509 kts 299°
2026-04-22 18:34 -40.32763 164.06487 40376 ft 510 kts 299°
2026-04-22 18:34 -40.29263 163.98413 40365 ft 510 kts 299°
2026-04-22 18:35 -40.25758 163.90347 40368 ft 510 kts 299°
2026-04-22 18:35 -40.22245 163.82284 40371 ft 510 kts 300°
2026-04-22 18:36 -40.18747 163.74277 40373 ft 510 kts 299°
2026-04-22 18:36 -40.15220 163.66225 40367 ft 511 kts 299°
2026-04-22 18:37 -40.11682 163.58169 40368 ft 511 kts 300°
2026-04-22 18:37 -40.08136 163.50115 40373 ft 511 kts 300°
2026-04-22 18:38 -40.04609 163.42126 40377 ft 512 kts 300°
2026-04-22 18:38 -40.01051 163.34088 40376 ft 512 kts 300°
2026-04-22 18:39 -39.95699 163.22031 40381 ft 512 kts 300°
2026-04-22 18:39 -39.92132 163.14011 40379 ft 512 kts 300°
2026-04-22 18:40 -39.88584 163.06050 40378 ft 512 kts 300°
2026-04-22 18:40 -39.84975 162.98066 40372 ft 511 kts 301°
2026-04-22 18:41 -39.81351 162.90108 40369 ft 511 kts 300°
2026-04-22 18:41 -39.77809 162.82152 40369 ft 511 kts 300°
2026-04-22 18:42 -39.74224 162.74171 40369 ft 512 kts 300°
2026-04-22 18:42 -39.70617 162.66190 40374 ft 512 kts 300°
2026-04-22 18:43 -39.67001 162.58220 40368 ft 513 kts 300°
2026-04-22 18:43 -39.63377 162.50256 40378 ft 513 kts 300°
2026-04-22 18:44 -39.59765 162.42340 40382 ft 513 kts 300°
2026-04-22 18:44 -39.56125 162.34380 40386 ft 513 kts 300°
2026-04-22 18:45 -39.52480 162.26429 40382 ft 514 kts 300°
2026-04-22 18:45 -39.48825 162.18479 40375 ft 513 kts 301°
2026-04-22 18:46 -39.45191 162.10594 40380 ft 514 kts 301°
2026-04-22 18:46 -39.41527 162.02662 40379 ft 514 kts 301°
2026-04-22 18:47 -39.37859 161.94742 40381 ft 514 kts 301°
2026-04-22 18:47 -39.34180 161.86819 40382 ft 514 kts 301°
2026-04-22 18:48 -39.30524 161.78965 40383 ft 514 kts 301°
2026-04-22 18:48 -39.26835 161.71060 40382 ft 514 kts 301°
2026-04-22 18:49 -39.23142 161.63164 40383 ft 514 kts 301°
2026-04-22 18:49 -39.19469 161.55333 40374 ft 514 kts 301°
2026-04-22 18:50 -39.15767 161.47459 40378 ft 514 kts 301°
2026-04-22 18:50 -39.12060 161.39593 40377 ft 513 kts 301°
2026-04-22 18:51 -39.08351 161.31744 40377 ft 513 kts 301°
2026-04-22 18:51 -39.04636 161.23902 40377 ft 513 kts 301°
2026-04-22 18:52 -39.00937 161.16111 40376 ft 513 kts 301°
2026-04-22 18:52 -38.97212 161.08287 40378 ft 514 kts 301°
2026-04-22 18:53 -38.93476 161.00458 40383 ft 514 kts 301°
2026-04-22 18:53 -38.89737 160.92641 40383 ft 514 kts 301°
2026-04-22 18:54 -38.86018 160.84884 40382 ft 513 kts 302°
2026-04-22 18:54 -38.82273 160.77092 40377 ft 513 kts 302°
2026-04-22 18:55 -38.78526 160.69315 40377 ft 513 kts 302°
2026-04-22 18:55 -38.74774 160.61548 40375 ft 512 kts 302°
2026-04-22 18:56 -38.71042 160.53839 40364 ft 512 kts 302°
2026-04-22 18:56 -38.67286 160.46100 40373 ft 512 kts 302°
2026-04-22 18:57 -38.63522 160.38363 40376 ft 512 kts 302°
2026-04-22 18:57 -38.59749 160.30626 40375 ft 513 kts 302°
2026-04-22 18:58 -38.55974 160.22903 40378 ft 513 kts 302°
2026-04-22 18:58 -38.52216 160.15234 40388 ft 512 kts 302°
2026-04-22 18:59 -38.48432 160.07531 40386 ft 512 kts 302°
2026-04-22 18:59 -38.44649 159.99847 40380 ft 511 kts 302°
2026-04-22 19:00 -38.40860 159.92170 40379 ft 511 kts 302°
2026-04-22 19:00 -38.37097 159.84563 40371 ft 511 kts 302°
2026-04-22 19:01 -38.33307 159.76918 40377 ft 510 kts 302°
2026-04-22 19:01 -38.29510 159.69278 40373 ft 510 kts 302°
2026-04-22 19:02 -38.25708 159.61646 40373 ft 510 kts 302°
2026-04-22 19:02 -38.21900 159.54020 40373 ft 511 kts 302°
2026-04-22 19:03 -38.18114 159.46456 40378 ft 511 kts 302°
2026-04-22 19:03 -38.14298 159.38850 40377 ft 510 kts 302°
2026-04-22 19:04 -38.10481 159.31259 40377 ft 510 kts 302°
2026-04-22 19:04 -38.06657 159.23672 40374 ft 510 kts 302°
2026-04-22 19:05 -38.02856 159.16148 40370 ft 510 kts 302°
2026-04-22 19:05 -37.99024 159.08580 40371 ft 510 kts 302°
2026-04-22 19:06 -37.95186 159.01017 40371 ft 510 kts 302°
2026-04-22 19:07 -37.89440 158.89728 40361 ft 511 kts 302°
2026-04-22 19:07 -37.85585 158.82176 40360 ft 511 kts 302°
2026-04-22 19:08 -37.81723 158.74627 40383 ft 511 kts 302°
2026-04-22 19:08 -37.77863 158.67099 40368 ft 510 kts 302°
2026-04-22 19:09 -37.73996 158.59576 40362 ft 510 kts 302°
2026-04-22 19:09 -37.70151 158.52112 40360 ft 510 kts 302°
2026-04-22 19:10 -37.66278 158.44610 40366 ft 510 kts 302°
2026-04-22 19:10 -37.62399 158.37113 40378 ft 510 kts 302°
2026-04-22 19:11 -37.58520 158.29626 40383 ft 510 kts 302°
2026-04-22 19:11 -37.54658 158.22185 40384 ft 510 kts 302°
2026-04-22 19:12 -37.50714 158.14755 40373 ft 510 kts 302°
2026-04-22 19:12 -37.46825 158.07278 40383 ft 510 kts 302°
2026-04-22 19:13 -37.42943 157.99799 40377 ft 510 kts 302°
2026-04-22 19:13 -37.39069 157.92395 40376 ft 510 kts 302°
2026-04-22 19:14 -37.35155 157.84949 40368 ft 510 kts 302°
2026-04-22 19:14 -37.31236 157.77514 40369 ft 510 kts 302°
2026-04-22 19:15 -37.27975 157.71340 40368 ft 511 kts 302°
2026-04-22 19:15 -37.23407 157.62710 40372 ft 511 kts 302°
2026-04-22 19:16 -37.19470 157.55289 40370 ft 511 kts 302°
2026-04-22 19:16 -37.15526 157.47871 40366 ft 511 kts 302°
2026-04-22 19:17 -37.11577 157.40462 40373 ft 511 kts 302°
2026-04-22 19:17 -37.07627 157.33067 40371 ft 511 kts 302°
2026-04-22 19:18 -37.03697 157.25724 40366 ft 511 kts 302°
2026-04-22 19:18 -36.99739 157.18346 40361 ft 510 kts 302°
2026-04-22 19:19 -36.95775 157.10973 40366 ft 511 kts 302°
2026-04-22 19:19 -36.91808 157.03609 40365 ft 511 kts 302°
2026-04-22 19:20 -36.87862 156.96302 40365 ft 511 kts 302°
2026-04-22 19:20 -36.83882 156.88948 40352 ft 511 kts 302°
2026-04-22 19:21 -36.79900 156.81605 40367 ft 511 kts 302°
2026-04-22 19:21 -36.75909 156.74261 40367 ft 511 kts 302°
2026-04-22 19:22 -36.71941 156.66977 40368 ft 511 kts 302°
2026-04-22 19:22 -36.67942 156.59652 40366 ft 511 kts 302°
2026-04-22 19:23 -36.63941 156.52337 40361 ft 511 kts 302°
2026-04-22 19:23 -36.59935 156.45029 40362 ft 511 kts 302°
2026-04-22 19:24 -36.55949 156.37774 40362 ft 511 kts 302°
2026-04-22 19:24 -36.51930 156.30474 40364 ft 512 kts 302°
2026-04-22 19:25 -36.47905 156.23181 40356 ft 512 kts 302°
2026-04-22 19:25 -36.43875 156.15891 40363 ft 512 kts 302°
2026-04-22 19:26 -36.39840 156.08610 40365 ft 512 kts 302°
2026-04-22 19:26 -36.35827 156.01383 40365 ft 512 kts 302°
2026-04-22 19:27 -36.31785 155.94119 40359 ft 512 kts 302°
2026-04-22 19:27 -36.27739 155.86865 40363 ft 511 kts 302°
2026-04-22 19:28 -36.23698 155.79633 40360 ft 510 kts 302°
2026-04-22 19:28 -36.19679 155.72456 40359 ft 510 kts 302°
2026-04-22 19:29 -36.15631 155.65243 40350 ft 510 kts 302°
2026-04-22 19:29 -36.11583 155.58045 40361 ft 509 kts 302°
2026-04-22 19:30 -36.08220 155.52077 40355 ft 509 kts 302°
2026-04-22 19:30 -36.03514 155.43742 40359 ft 508 kts 302°
2026-04-22 19:31 -35.99465 155.36587 40359 ft 508 kts 302°
2026-04-22 19:31 -35.95418 155.29450 40354 ft 507 kts 302°
2026-04-22 19:32 -35.91409 155.22395 40353 ft 507 kts 302°
2026-04-22 19:32 -35.87357 155.15278 40351 ft 507 kts 302°
2026-04-22 19:33 -35.83432 155.08399 40351 ft 507 kts 302°
2026-04-22 19:33 -35.79371 155.01296 40352 ft 507 kts 302°
2026-04-22 19:34 -35.75306 154.94201 40357 ft 506 kts 302°
2026-04-22 19:34 -35.71267 154.87166 40358 ft 506 kts 302°
2026-04-22 19:35 -35.67200 154.80093 40353 ft 506 kts 302°
2026-04-22 19:35 -35.63825 154.74231 40355 ft 506 kts 302°
2026-04-22 19:36 -35.58858 154.66150 40340 ft 509 kts 308°
2026-04-22 19:36 -35.54259 154.59629 40370 ft 508 kts 307°
2026-04-22 19:37 -35.49664 154.53040 40369 ft 508 kts 307°
2026-04-22 19:37 -35.45060 154.46456 40368 ft 508 kts 307°
2026-04-22 19:38 -35.40451 154.39888 40354 ft 508 kts 307°
2026-04-22 19:38 -35.35839 154.33327 40356 ft 508 kts 307°
2026-04-22 19:39 -35.31227 154.26780 40358 ft 507 kts 307°
2026-04-22 19:39 -35.26643 154.20284 40357 ft 507 kts 307°
2026-04-22 19:40 -35.22032 154.13763 40359 ft 507 kts 307°
2026-04-22 19:40 -35.17409 154.07237 40354 ft 507 kts 307°
2026-04-22 19:41 -35.12798 154.00741 40356 ft 506 kts 307°
2026-04-22 19:41 -35.08179 153.94244 40358 ft 507 kts 307°
2026-04-22 19:42 -35.03553 153.87751 40353 ft 507 kts 307°
2026-04-22 19:42 -34.98919 153.81259 40358 ft 507 kts 307°
2026-04-22 19:43 -34.91988 153.71572 40362 ft 505 kts 307°
2026-04-22 19:43 -34.87393 153.65164 40358 ft 505 kts 307°
2026-04-22 19:44 -34.82772 153.58732 40356 ft 505 kts 307°
2026-04-22 19:44 -34.78149 153.52309 40357 ft 505 kts 307°
2026-04-22 19:45 -34.73522 153.45892 40355 ft 505 kts 307°
2026-04-22 19:45 -34.68887 153.39477 40364 ft 504 kts 307°
2026-04-22 19:46 -34.66618 153.36341 40229 ft 500 kts 307°
2026-04-22 19:46 -34.64329 153.33183 39989 ft 494 kts 307°
2026-04-22 19:46 -34.62068 153.30065 39547 ft 493 kts 307°
2026-04-22 19:46 -34.59800 153.26934 38665 ft 497 kts 306°
2026-04-22 19:47 -34.57488 153.23743 37581 ft 504 kts 306°
2026-04-22 19:47 -34.55172 153.20555 36861 ft 503 kts 307°
2026-04-22 19:47 -34.53641 153.18454 36548 ft 499 kts 306°
2026-04-22 19:47 -34.50576 153.14246 35473 ft 500 kts 306°
2026-04-22 19:48 -34.48289 153.11103 34386 ft 507 kts 306°
2026-04-22 19:48 -34.45948 153.07889 33446 ft 508 kts 307°
2026-04-22 19:48 -34.43635 153.04724 32855 ft 502 kts 307°
2026-04-22 19:48 -34.41344 153.01595 32517 ft 490 kts 307°
2026-04-22 19:49 -34.39101 152.98533 32221 ft 481 kts 308°
2026-04-22 19:49 -34.36917 152.95549 31630 ft 478 kts 308°
2026-04-22 19:49 -34.35049 152.92995 31164 ft 475 kts 308°
2026-04-22 19:49 -34.32890 152.90048 30575 ft 470 kts 309°
2026-04-22 19:50 -34.30724 152.87095 29956 ft 466 kts 309°
2026-04-22 19:50 -34.28583 152.84182 29391 ft 460 kts 308°
2026-04-22 19:50 -34.26474 152.81314 28823 ft 454 kts 308°
2026-04-22 19:50 -34.24416 152.78516 28287 ft 448 kts 308°
2026-04-22 19:51 -34.22354 152.75715 27742 ft 443 kts 308°
2026-04-22 19:51 -34.20319 152.72953 27188 ft 439 kts 308°
2026-04-22 19:51 -34.18301 152.70215 26637 ft 435 kts 308°
2026-04-22 19:51 -34.16306 152.67511 26092 ft 431 kts 308°
2026-04-22 19:52 -34.14315 152.64814 25567 ft 428 kts 308°
2026-04-22 19:52 -34.12345 152.62147 25030 ft 425 kts 308°
2026-04-22 19:52 -34.10387 152.59469 24498 ft 420 kts 305°
2026-04-22 19:52 -34.08895 152.56635 23982 ft 412 kts 291°
2026-04-22 19:53 -34.07972 152.53414 23410 ft 401 kts 277°
2026-04-22 19:53 -34.07609 152.50132 22912 ft 391 kts 271°
2026-04-22 19:53 -34.07421 152.47980 22579 ft 389 kts 271°
2026-04-22 19:53 -34.07017 152.43673 21911 ft 384 kts 272°
2026-04-22 19:54 -34.06711 152.40491 21409 ft 381 kts 272°
2026-04-22 19:54 -34.06408 152.37329 20930 ft 378 kts 272°
2026-04-22 19:54 -34.06109 152.34196 20424 ft 375 kts 272°
2026-04-22 19:54 -34.05813 152.31080 19939 ft 373 kts 272°
2026-04-22 19:55 -34.05521 152.28025 19454 ft 371 kts 272°
2026-04-22 19:55 -34.05227 152.24945 18962 ft 369 kts 272°
2026-04-22 19:55 -34.04934 152.21877 18445 ft 368 kts 272°
2026-04-22 19:55 -34.04641 152.18827 17940 ft 364 kts 272°
2026-04-22 19:56 -34.04350 152.15808 17463 ft 361 kts 272°
2026-04-22 19:56 -34.04061 152.12809 16962 ft 358 kts 272°
2026-04-22 19:56 -34.03773 152.09841 16494 ft 356 kts 273°
2026-04-22 19:56 -34.03488 152.06894 16016 ft 353 kts 273°
2026-04-22 19:57 -34.03234 152.04003 15466 ft 350 kts 268°
2026-04-22 19:57 -34.03528 152.01088 14593 ft 354 kts 255°
2026-04-22 19:57 -34.04071 151.98145 13515 ft 365 kts 254°
2026-04-22 19:57 -34.04643 151.95112 12463 ft 374 kts 255°
2026-04-22 19:58 -34.05207 151.92049 11700 ft 373 kts 255°
2026-04-22 19:58 -34.05757 151.89004 11013 ft 371 kts 255°
2026-04-22 19:58 -34.06289 151.86018 10760 ft 356 kts 255°
2026-04-22 19:58 -34.06792 151.83168 10601 ft 340 kts 255°
2026-04-22 19:59 -34.07267 151.80481 10466 ft 325 kts 255°
2026-04-22 20:00 -34.09922 151.65461 8080 ft 297 kts 255°
2026-04-22 20:00 -34.10348 151.63039 7508 ft 294 kts 255°
2026-04-22 20:01 -34.10767 151.60652 6993 ft 289 kts 255°
2026-04-22 20:01 -34.11182 151.58284 6385 ft 286 kts 255°
2026-04-22 20:01 -34.11579 151.56016 6189 ft 276 kts 256°
2026-04-22 20:01 -34.11978 151.53740 5970 ft 279 kts 256°
2026-04-22 20:02 -34.12378 151.51456 5672 ft 276 kts 255°
2026-04-22 20:02 -34.12769 151.49210 5357 ft 271 kts 255°
2026-04-22 20:02 -34.13147 151.47040 5053 ft 257 kts 256°
2026-04-22 20:02 -34.13502 151.44988 4775 ft 244 kts 255°
2026-04-22 20:03 -34.13852 151.42978 4509 ft 247 kts 256°
2026-04-22 20:03 -34.14208 151.40942 4212 ft 248 kts 256°
2026-04-22 20:03 -34.14557 151.38927 3924 ft 248 kts 255°
2026-04-22 20:03 -34.14909 151.36892 3615 ft 246 kts 254°
2026-04-22 20:04 -34.15255 151.34900 3329 ft 240 kts 255°
2026-04-22 20:04 -34.15596 151.32933 3063 ft 239 kts 255°
2026-04-22 20:04 -34.15942 151.30941 2984 ft 241 kts 255°
2026-04-22 20:04 -34.16269 151.29035 2990 ft 225 kts 256°
2026-04-22 20:05 -34.16573 151.27255 2981 ft 211 kts 256°
2026-04-22 20:05 -34.16768 151.25551 2986 ft 199 kts 272°
2026-04-22 20:05 -34.16264 151.24075 2978 ft 197 kts 310°
2026-04-22 20:05 -34.15152 151.23126 2989 ft 193 kts 337°
2026-04-22 20:06 -34.13920 151.22643 2991 ft 181 kts 347°
2026-04-22 20:06 -34.12702 151.22312 2995 ft 177 kts 348°
2026-04-22 20:06 -34.11500 151.22000 2998 ft 176 kts 348°
2026-04-22 20:06 -34.10300 151.21684 2858 ft 178 kts 348°
2026-04-22 20:07 -34.09089 151.21369 2605 ft 178 kts 348°
2026-04-22 20:07 -34.07887 151.21054 2374 ft 176 kts 349°
2026-04-22 20:07 -34.06699 151.20748 2198 ft 169 kts 349°
2026-04-22 20:07 -34.05601 151.20459 1909 ft 161 kts 348°
2026-04-22 20:08 -34.04525 151.20167 1707 ft 156 kts 348°
2026-04-22 20:08 -34.03471 151.19874 1480 ft 156 kts 348°
2026-04-22 20:08 -34.02416 151.19585 1276 ft 155 kts 348°
2026-04-22 20:08 -34.01368 151.19318 1018 ft 153 kts 349°
2026-04-22 20:09 -34.00337 151.19059 815 ft 151 kts 348°
2026-04-22 20:09 -33.99324 151.18808 648 ft 145 kts 348°
2026-04-22 20:09 -33.98353 151.18561 427 ft 140 kts 347°
2026-04-22 20:09 -33.97433 151.18319 239 ft 136 kts 347°
2026-04-22 20:10 -33.96516 151.18085 84 ft 134 kts 347°
2026-04-22 20:10 -33.95679 151.17868 34 ft 102 kts 348°
2026-04-22 20:10 -33.95106 151.17719 32 ft 69 kts 347°
2026-04-22 20:10 -33.94710 151.17616 34 ft 49 kts 348°
2026-04-22 20:11 -33.94421 151.17542 35 ft 37 kts 348°
2026-04-22 20:11 -33.94195 151.17485 35 ft 30 kts 348°
2026-04-22 20:11 -33.94035 151.17444 31 ft 14 kts 348°
2026-04-22 20:11 -33.93945 151.17398 31 ft 14 kts 302°
2026-04-22 20:12 -33.93952 151.17310 33 ft 11 kts 257°
2026-04-22 20:12 -33.93969 151.17230 34 ft 9 kts 255°
2026-04-22 20:12 -33.93980 151.17182 34 ft 9 kts 255°
2026-04-22 20:12 -33.94001 151.17086 35 ft 9 kts 255°
2026-04-22 20:13 -33.94019 151.17007 35 ft 10 kts 252°
2026-04-22 20:13 -33.94020 151.17003 35 ft 10 kts 252°